Simultaneous Nadir Overpasses (SNOs) Predictions

Prediction of SNOs between AQUA and NPP Satellite Orbit:

Table of predicted SNOs for the next 14.0 days since TLE Epoch: 12/16/2016
Index Date (AQUA) Time (AQUA) Lat,Lon (AQUA) SZA (AQUA ) Date (NPP) Time (NPP) Lat,Lon (NPP) SZA (NPP ) Distance(km) Time Diff (sec)
1 12/18/2016 05:32:00 75.51, -25.43 120.36 12/18/2016 05:31:36 75.51, -25.45 120.38 0.45 24
2 12/18/2016 06:21:07 -76.52, 145.34 60.74 12/18/2016 06:22:00 -76.52, 145.29 60.77 1.32 53
3 12/20/2016 21:01:38 -67.31, -91.50 51.63 12/20/2016 21:00:24 -67.45, -92.26 51.39 35.86 74
4 12/20/2016 21:48:22 75.91, 91.62 120.04 12/20/2016 21:48:22 75.90, 91.60 120.05 0.66 0
5 12/20/2016 22:35:35 -81.15, -67.80 67.11 12/20/2016 22:36:49 -80.83, -67.10 67.31 37.86 74
6 12/23/2016
